www.pogodaiklimat.ru

АРХИВ ПОГОДЫ в Вашингтоне

Время (UTC), дата Ветер
(напр.,м/с)
 
Видим.   Явления Облачность Т
(С)
Тd
(С)
f
(%)
Тe
(С)
Тes
(С)
Комфортность

P
(гПа)

Po
(гПа)
Тmin
(С)
Tmax
(С)
R
(мм)
SD
(см)
00:52 27.09 З  16 км    10/10 м
[средняя] 
+23.0  +21.0  89  +31  +31  очень
душно 
1015.4  1015.0  +22.2  +24.4  1.5   
01:52 27.09 СЗ  16 км    10/10 м
[средняя] 
+24.4  +21.1  82  +31  +31  очень
душно 
1016.2  1015.7  +22.2  +24.4  1.5   
02:52 27.09 С  16 км    10/10 м
[средняя] 
+23.0  +21.0  89  +31  +31  очень
душно 
1016.5  1016.0  +22.2  +24.4  1.5   
03:52 27.09 С  16 км    10/10 м
[средняя] 
+23.3  +19.4  79  +30  +30  очень
душно 
1016.5  1016.0  +22.2  +24.4  1.5   
04:52 27.09 С  16 км    10/10 м
[средняя] 
+22.2  +18.9  82  +28  +28  душно  1016.6  1016.0  +22.2  +24.4  1.5   
05:52 27.09 С  16 км    10/10 м
[средняя] 
+22.0  +18.0  78  +27  +27  душно  1016.9  1016.3  +19.4  +22.2     
06:52 27.09 С  16 км    10/10 м
[средняя] 
+21.0  +17.0  78  +25  +25  комфорт  1017.8  1017.3  +19.4  +22.2     
07:52 27.09 С  16 км    10/10 м
[средняя] 
+20.6  +13.9  65  +23  +23  комфорт  1018.4  1018.0  +19.4  +22.2     
08:52 27.09 С  16 км    10/10 м
[средняя] 
+20.0  +15.0  73  +22  +22  комфорт  1019.2  1018.7  +19.4  +22.2     
09:52 27.09 С  16 км    10/10 м
[средняя] 
+20.0  +15.0  73  +22  +22  комфорт  1019.8  1019.4  +19.4  +22.2     
10:52 27.09 С  16 км    10/10 м
[средняя] 
+19.4  +14.4  73  +21  +21  комфорт  1020.5  1020.1  +19.4  +22.2     
11:52 27.09 СВ  16 км    10/10 м
[средняя] 
+19.0  +13.0  68  +19  +19    1021.0  1020.4  +17.8  +19.4     
13:52 27.09 СВ  16 км    10/10 м
[средняя] 
+19.4  +11.1  59  +20  +20    1020.9  1020.4  +17.8  +19.4     
14:52 27.09 В  16 км    10/10 м
[средняя] 
+19.0  +11.0  60  +20  +20    1021.0  1020.4  +17.8  +19.4     
15:52 27.09 В  16 км    10/10 м
[средняя] 
+19.0  +11.0  60  +20  +20    1020.9  1020.4  +17.8  +19.4     
16:52 27.09 СВ  16 км    10/10 м
[средняя] 
+17.8  +11.7  67  +17  +17    1020.3  1019.7  +17.8  +19.4     
17:34 27.09 СВ  8 км    10/10 м
[средняя] 
+16.0  +13.0  82  +15  +15    1019.1  1019.0  +15.0  +17.8  3.3   
18:22 27.09 С  16 км    10/10 м
[средняя] 
+16.0  +13.0  82  +15  +15    1019.0  1018.7  +15.0  +17.8  3.3   
19:20 27.09 С  5 км    10/10 м
[средняя] 
+15.0  +13.0  88  +13  +13    1018.6  1018.4  +15.0  +17.8  3.3   
20:25 27.09 С  14 км    10/10 м
[средняя] 
+15.0  +13.0  88  +14  +14    1018.0  1018.0  +15.0  +17.8  10.4   
21:21 27.09 С  11 км    10/10 м
[средняя] 
+15.0  +13.0  88  +13  +13    1017.9  1017.3  +15.0  +17.8  10.4   
22:23 27.09 С  4 км  дымка  10/10 м
[средняя] 
+15.0  +13.0  88  +14  +14    1018.3  1017.7  +15.0  +17.8  10.4   
23:15 27.09 СВ  10 км  мгла  10/10 м
[средняя] 
+15.0  +13.0  88  +13  +13    1017.8  1017.3  +15.0  +16.1  1.8   
00:25 28.09 СВ  13 км  дымка  10/10 м
[средняя] 
+15.0  +13.0  88  +13  +13    1017.3  1017.0  +15.0  +16.1  1.8   
01:52 28.09 СВ  11 км    10/10 м
[средняя] 
+15.6  +13.9  90  +15  +15    1016.5  1016.0  +15.0  +16.1  1.8   
02:52 28.09 СВ  6 км    10/10 м
[средняя] 
+16.0  +14.0  88  +16  +16    1015.5  1015.0  +15.0  +16.1  6.1   
03:25 28.09 С  4 км  дымка  10/10 м
[средняя] 
+16.0  +14.0  88  +15  +15    1015.9  1015.0  +15.0  +16.1  6.1   
04:15 28.09 С  11 км    10/10 м
[средняя] 
+16.0  +14.0  88  +15  +15    1015.9  1014.3  +15.0  +16.1  6.1   
05:13 28.09 СЗ  6 км    10/10 м
[средняя] 
0.0  0.0  100  -6  -6    1014.1  1015.0  +15.6  +16.1  7.9   
06:15 28.09 С  16 км    10/10 м
[средняя] 
0.0  0.0  100  -5  -5    1014.3  1013.6  +15.6  +16.1  7.9   
07:38 28.09 С  16 км    10/10 м
[средняя] 
0.0  0.0  100  -5  -5    1014.9  1014.0  +15.6  +16.1  7.9   
08:27 28.09 штиль  16 км    10/10 м
[средняя] 
0.0  0.0  100  -1  -1    1015.6  1014.3  +15.6  +16.1  10.2   
09:43 28.09 С  16 км    8/8 м
[средняя] 
+16.0  +14.0  88  +15  +15    1016.6  1016.0  +15.6  +16.1  10.2   
10:20 28.09 С  16 км    8/5 м
[средняя] 
+16.0  +12.0  77  +15  +15    1017.5  1016.7  +15.6  +16.1  10.2   
11:52 28.09 СЗ  16 км    8/8 м
[верхняя средняя] 
+16.7  +12.8  78  +16  +16    1018.4  1018.0  +16.1  +23.3     
12:11 28.09 СЗ  16 км    8/8 м
[верхняя средняя] 
+17.0  +13.0  77  +17  +17    1019.4  1018.4  +16.1  +23.3     
13:52 28.09 С  16 км    8/8 м
[верхняя средняя] 
+18.9  +13.3  70  +20  +20    1019.6  1019.0  +16.1  +23.3     
14:26 28.09 СЗ  16 км    8/8 м
[верхняя средняя] 
+19.0  +13.0  68  +20  +21    1019.6  1019.0  +16.1  +23.3     
15:12 28.09 СЗ  4
{9} 
16 км    8/8 м
[верхняя средняя] 
+21.0  +14.0  64  +24  +25  комфорт  1019.5  1019.0  +16.1  +23.3     
16:52 28.09 нст  16 км    8/8 м
[верхняя средняя] 
+23.3  +14.4  57  +27  +30  душно    1018.7  +16.1  +23.3     
17:52 28.09 штиль  16 км    8/8 м
[верхняя средняя] 
+23.0  +13.0  53  +26  +29  жарко  1019.0  1018.4  +20.0  +25.0     
18:52 28.09 штиль  16 км    8/8 м
[верхняя средняя] 
+24.0  +14.0  54  +26  +29  жарко  1018.9  1018.4  +20.0  +25.0     
19:52 28.09 СЗ  16 км    8/8 м
[верхняя средняя] 
+24.4  +14.4  54  +27  +28  жарко    1018.4  +20.0  +25.0     
20:52 28.09 СЗ  16 км    8/8 м
[верхняя средняя] 
+24.0  +13.0  50  +26  +27  жарко  1019.4  1019.0  +20.0  +25.0     
21:52 28.09 СВ  16 км    8/8 м
[верхняя средняя] 
+22.0  +14.0  60  +25  +25  комфорт  1019.7  1019.4  +20.0  +25.0     
22:52 28.09 Ю  16 км    8/8 м
[верхняя средняя] 
+20.0  +15.0  73  +23  +23  комфорт  1020.1  1019.7  +20.0  +25.0     
23:52 28.09 Ю  16 км    8/8 м
[верхняя средняя] 
+19.0  +16.0  83  +20  +20    1020.5  1020.1  +17.8  +20.6     
00:52 29.09 Ю  16 км    8/8 м
[верхняя средняя] 
+19.0  +17.0  88  +21  +21  комфорт  1021.0  1020.4  +17.8  +20.6     

 

Местоположение метеостанции Reagan National Airport: широта 38.8483 долгота -77.0342 высота над уровнем моря 4 м.

В архиве по умолчанию представлена погода в Вашингтоне за последние 1-2 суток. Обновление информации о фактической погоде в базе происходит ежечасно! Архивные данные за месяц целиком и за предыдущие месяцы Вы можете получить, выбрав интересующий диапазон дат из раскрывающегося списка и нажав кнопку "Ввод!".

Внимание! Архив погоды МЕТАР в базе сайта в настоящее время начинается c 1 января 2013 г. Нет смысла пытаться выбрать более раннюю дату.

Внимание! Время в таблицах - всемирное. Для получения местного времени необходимо прибавить поправку, которая в Вашингтоне равна -5 ч.

Ветер - указаны скорость ветра в м/с и направление, откуда дует ветер: С - северный, СВ - северо-восточный, В - восточный, ЮВ - юго-восточный, Ю - южный, ЮЗ - юго-западный, З - западный, СЗ - северо-западный.
Видимость - горизонтальная дальность видимости в метрах или километрах. При видимости от 1 до 10 км при отсутствии осадков обычно наблюдается дымка, при ухудшении видимости до 1 км и менее - туман. В сухую погоду видимость может ухудшаться дымом, пылью или мглою.
Атмосферные явления - указаны явления, наблюдавшиеся в указанный момент времени.
Облачность - указаны через наклонную черту верхняя и нижняя облачность в баллах и высота нижней границы облаков в метрах. Внимание: облачность, как и прочие метеорологические величины в США измеряются автоматическими метеостанциями. Указанные значения в баллах носят условный характер и показывают процент времени, в течение которого, в среднем, лазерный луч высотомера отражался от облаков обратно.
T - Температура воздуха - температура, измеренная на высоте 2 м над землей.
Td - Температура точки росы - температура, при понижении до которой содержащийся в воздухе водяной пар достигнет насыщения.
f - Относительная влажность воздуха - влажноcть воздуха, измеренная на высоте 2 м над землей.
Te - Эффективная температура - температура, которую ощущает одетый по сезону человек в тени. Характеристика душности погоды. При расчете учитывается влияние влажности воздуха и скорости ветра на теплоощущения человека.
Tes - Эффективная температура на солнце - температура, которую ощущает человек, с поправкой на солнечный нагрев. Характеристика знойности погоды. Зависит от высоты солнца над горизонтом, облачности и скорости ветра. Ночью, в пасмурную погоду, а также при ветре 12 м/с и более поправка равна нулю.
P - Атмосферное давление - приведенное к уровню моря атмосферное давление.
Po - Атмосферное давление - измеренное на уровне метеостанции атмосферное давление.
Tmin - Минимальная температура - минимум температуры воздуха на высоте 2 м над землей.
Tmax - Максимальная температура - максимум температуры воздуха на высоте 2 м над землей.
R - Количество осадков - Количество выпавших осадков за 3 или 6 часов, мм.
SD - Снежный покров - Высота снежного покрова, см.